OKEAN O

导读 | 星芒AI

OKEAN O 是俄罗斯计划开发的一系列海洋监测卫星之一,旨在用于地球资源探测和海洋环境监测。该卫星将搭载高分辨率光学和雷达传感器,用于获取海洋表面、冰层、海岸线及天气数据。OKEAN O 卫星项目是俄罗斯“OKEAN”系列的延续,目标是提升国家在海洋遥感和环境监测方面的能力。该项目预计将增强俄罗斯在民用和军事领域的空间应用能力,并支持全球气候变化研究。

基本信息
目录编号:
25860
目录名称:
OKEAN O
国际标识:
1999-039A
轨道中心:
EARTH
卫星名称:
OKEAN O
卫星全名:
--
卫星状态:
在轨 (已飞行9603 天)
发射日期:
1999-07-17 UTC
国别 :
俄罗斯(独联体) (CIS)
星等 :
--
轨道信息
数据来源 国际轨道数据
星历时间: 2025-10-31T11:09:30+0800
16小时前
查看轨道信息
半长轴: 7007.297km
偏心率: 0.0001782
轨道倾角: 97.967°
近地点辐角 76.457°
升交点赤经 0.190°
平近点角 283.684°
近地点: 627.913km
远地点: 630.411km
周期: 97.294分钟
每日圈数: 14.800522
详细信息
使用方式:
暂无
2D轨道图
3D轨道图
轨道高度分析图
轨道倾角分析图
轨道综合分析图
查看轨道综合分析图